Location: Borgo
(42.3939°N, 9.2791°E)
Time: 15:07:01
(UTC+00:00)

CSL-04 Rocket - Pass Details

Date: 27 February 2020
Orbit: 806 x 861 km, 99.0° (Epoch: 08 April)

Event Time Altitude Azimuth Distance (km) Brightness Sun altitude
Rises 17:28:52 0° 148° (SSE) 3,416 6.6 -4.4°
Reaches altitude 10° 17:31:18 10° 143° (SE) 2,479 5.9 -4.8°
Maximum altitude 17:36:35 49° 70° (ENE) 1,090 3.9 -5.8°
Drops below altitude 10° 17:41:49 10° 357° (N) 2,465 6.1 -6.7°
Sets 17:44:14 0° 352° (N) 3,395 6.9 -7.2°
